BAW255G EGLL-TBPB

Flight info

Callsign BAW255G
Flight time N/A
Altitude 34000
Route GASGU N514 ADKIK DCT JOZMA DCT ARKIL/M083F340 DCT SOMAX DCT 4830N02000W 44N030W/M083F360 38N040W 3330N04500W 28N050W/M083F380 20N055W DCT FISST/N0480F380 DCT BGI
Aircraft B77W/H-SDE1E3FGHIJ3J4J5J6M1M2P2RWXYZ/LB1D1

Departure

Time N/A
Airport London Heathrow Airport (EGLL)

Arrival

Time 2026-05-04 16:58
Airport Grantley Adams International Airport (TBPB)
Time Latitude Longitude Altitude Speed Heading
2026-05-04 16:18 16.39259 -57.16034 38090 ft 495 kts 216°
2026-05-04 16:18 16.36418 -57.18063 38091 ft 495 kts 216°
2026-05-04 16:19 16.22655 -57.28799 38088 ft 494 kts 219°
2026-05-04 16:20 16.09022 -57.39624 38099 ft 494 kts 219°
2026-05-04 16:22 15.95340 -57.50491 38085 ft 494 kts 219°
2026-05-04 16:23 15.78965 -57.63481 38077 ft 494 kts 219°
2026-05-04 16:25 15.62579 -57.76450 38091 ft 493 kts 220°
2026-05-04 16:26 15.43492 -57.91525 38089 ft 493 kts 219°
2026-05-04 16:28 15.29827 -58.02295 38078 ft 494 kts 219°
2026-05-04 16:29 15.10703 -58.17337 38072 ft 494 kts 220°
2026-05-04 16:31 14.97024 -58.28076 38072 ft 493 kts 219°
2026-05-04 16:32 14.80629 -58.40922 38069 ft 492 kts 220°
2026-05-04 16:33 14.69681 -58.49489 37192 ft 502 kts 219°
2026-05-04 16:34 14.64162 -58.53804 35781 ft 500 kts 220°
2026-05-04 16:34 14.61386 -58.55970 35013 ft 500 kts 219°
2026-05-04 16:35 14.53178 -58.62370 33263 ft 487 kts 219°
2026-05-04 16:35 14.45172 -58.68608 31651 ft 474 kts 219°
2026-05-04 16:36 14.42549 -58.70656 31110 ft 471 kts 219°
2026-05-04 16:36 14.37354 -58.74709 30046 ft 465 kts 219°
2026-05-04 16:37 14.32218 -58.78709 28880 ft 458 kts 218°
2026-05-04 16:37 14.29721 -58.80652 28346 ft 453 kts 219°
2026-05-04 16:37 14.24733 -58.84533 27336 ft 445 kts 219°
2026-05-04 16:38 14.19834 -58.88347 26342 ft 437 kts 218°
2026-05-04 16:39 14.12638 -58.93931 24876 ft 427 kts 218°
2026-05-04 16:39 14.07921 -58.97589 23896 ft 421 kts 218°
2026-05-04 16:40 14.03308 -59.01168 22853 ft 415 kts 218°
2026-05-04 16:40 13.98747 -59.04714 21899 ft 407 kts 218°
2026-05-04 16:41 13.94255 -59.08198 20983 ft 401 kts 217°
2026-05-04 16:41 13.87614 -59.13342 19626 ft 395 kts 217°
2026-05-04 16:42 13.81060 -59.18421 18250 ft 392 kts 217°
2026-05-04 16:43 13.76715 -59.21780 17282 ft 388 kts 216°
2026-05-04 16:43 13.72426 -59.25101 16381 ft 383 kts 216°
2026-05-04 16:43 13.70298 -59.26745 15932 ft 381 kts 216°
2026-05-04 16:44 13.61922 -59.33214 14166 ft 374 kts 215°
2026-05-04 16:45 13.57773 -59.36416 13219 ft 371 kts 215°
2026-05-04 16:46 13.51645 -59.41149 11895 ft 363 kts 215°
2026-05-04 16:46 13.47633 -59.44243 11038 ft 358 kts 214°
2026-05-04 16:47 13.43707 -59.47271 10527 ft 343 kts 214°
2026-05-04 16:47 13.39993 -59.50136 10219 ft 324 kts 214°
2026-05-04 16:48 13.34781 -59.54151 9518 ft 308 kts 214°
2026-05-04 16:48 13.33079 -59.55461 9158 ft 306 kts 214°
2026-05-04 16:49 13.29703 -59.58057 8515 ft 302 kts 214°
2026-05-04 16:49 13.26364 -59.60624 8024 ft 294 kts 214°
2026-05-04 16:50 13.23063 -59.63158 7198 ft 298 kts 214°
2026-05-04 16:50 13.19838 -59.65646 6767 ft 284 kts 214°
2026-05-04 16:51 13.16858 -59.67931 6353 ft 250 kts 214°
2026-05-04 16:51 13.15506 -59.68972 6218 ft 236 kts 213°
2026-05-04 16:51 13.12911 -59.70886 5503 ft 231 kts 201°
2026-05-04 16:52 13.09932 -59.70752 4955 ft 211 kts 162°
2026-05-04 16:52 13.08504 -59.70390 4638 ft 211 kts 162°
2026-05-04 16:53 13.05706 -59.69679 4112 ft 203 kts 162°
2026-05-04 16:53 13.03134 -59.67079 3383 ft 188 kts 90°
2026-05-04 16:54 13.03383 -59.65769 3127 ft 185 kts 76°
2026-05-04 16:55 13.04604 -59.60813 2153 ft 173 kts 79°
2026-05-04 16:55 13.05156 -59.58569 1729 ft 147 kts 78°
2026-05-04 16:56 13.05625 -59.56670 1391 ft 136 kts 78°
2026-05-04 16:56 13.06315 -59.53861 868 ft 138 kts 79°
2026-05-04 16:57 13.06524 -59.52932 681 ft 136 kts 78°
2026-05-04 16:57 13.07022 -59.51009 278 ft 137 kts 79°
2026-05-04 16:58 13.07483 -59.49132 180 ft 25 kts 76°
2026-05-04 16:58 13.07512 -59.49033 179 ft 12 kts 63°
2026-05-04 16:59 13.07599 -59.48928 180 ft 9 kts 47°
2026-05-04 17:00 13.07755 -59.48765 176 ft 7 kts 45°
2026-05-04 17:00 13.07811 -59.48670 181 ft 5 kts
2026-05-04 17:01 13.07873 -59.48682 181 ft 4 kts 347°
2026-05-04 17:01 13.07879 -59.48683 181 ft 0 kts 347°